{"data":{"norad_id":65018,"intl_designator":"2025-161D","name":"STARLINK-34623","alt_names":[],"object_type":"PAYLOAD","status":"ACTIVE","operator":null,"country":"US","launch_date":"2025-07-30","launch_site_code":"AFWTR","launch_vehicle":null,"mission":null,"orbit_class":"UNKNOWN","rcs_meters":null,"size_class":null,"mass_kg":null,"dimensions":null,"purposes":["comms"],"wikipedia_slug":null,"has_3d_model":false,"image_url":null,"decayed_at":null,"tle_current":{"epoch":"2026-09-20T21:50:54.360960Z","epoch_age_seconds":88809,"freshness":"FRESH","line1":"1 65018U 25161D   26263.91035140  .00025344  00000+0  75826-3 0  9995","line2":"2 65018  53.1541 105.6785 0002029  91.3591 268.7644 15.34417806 65247","mean_motion":15.34417806,"eccentricity":0.0002029,"inclination_deg":53.1541,"raan_deg":105.6785,"arg_perigee_deg":91.3591,"mean_anomaly_deg":268.7644,"bstar":0.00075826,"rev_number":6524,"period_min":93.846669034288,"perigee_km":461.26232178772,"apogee_km":464.03831328117,"semimajor_km":6840.7873175344,"source":"CELESTRAK","updated_at":"2026-09-21T09:00:35.491950Z"}}}